QPF
0.02 0.02 0.03 0.03 0.04 0.05 0.07 0.07 0.06 0.06 0.06 0.07 0.07 0.07 0.08 0.07 0.07 0.07 0.06 0.05 0.05 0.04 0.05 0.04 0.03 0.05 0.05 0.04 0.04 0.04 0.04 0.04 0.04 0.02 0.02 0.01 0.01 0.02 0.02 0.02 0.02 0.02 0.01
0.03 0.03 0.04 0.04 0.04 0.04 0.05 0.05 0.05 0.04 0.04 0.05 0.06 0.08 0.10 0.11 0.12 0.11 0.09 0.09 0.07 0.06 0.06 0.06 0.05 0.06 0.05 0.05 0.03 0.03 0.02 0.03 0.02 0.03 0.03 0.03 0.03 0.02 0.02 0.02 0.01 0.01 0.01
0.04 0.04 0.03 0.03 0.03 0.03 0.03 0.04 0.04 0.03 0.04 0.06 0.09 0.09 0.10 0.11 0.12 0.13 0.11 0.09 0.07 0.06 0.05 0.05 0.05 0.06 0.05 0.05 0.04 0.02 0.03 0.03 0.02 0.02 0.03 0.04 0.04 0.04 0.03 0.02 0.02 0.01 0.01
0.02 0.04 0.03 0.02 0.02 0.02 0.02 0.03 0.03 0.03 0.04 0.05 0.07 0.07 0.08 0.08 0.07 0.08 0.09 0.07 0.05 0.04 0.04 0.03 0.03 0.05 0.04 0.04 0.04 0.03 0.04 0.03 0.03 0.03 0.03 0.03 0.03 0.04 0.02 0.03 0.02 0.02 0.02
0.02 0.04 0.03 0.04 0.03 0.03 0.03 0.03 0.02 0.03 0.03 0.04 0.04 0.03 0.04 0.05 0.04 0.04 0.05 0.05 0.04 0.03 0.03 0.02 0.03 0.04 0.04 0.04 0.03 0.03 0.03 0.03 0.03 0.03 0.04 0.03 0.03 0.03 0.03 0.02 0.02 0.02 0.02
0.03 0.04 0.05 0.06 0.06 0.05 0.04 0.03 0.03 0.04 0.04 0.02 0.03 0.03 0.04 0.04 0.04 0.06 0.06 0.06 0.05 0.04 0.03 0.02 0.02 0.04 0.04 0.04 0.03 0.03 0.02 0.02 0.01 0.02 0.03 0.02 0.02 0.03 0.03 0.02 0.02 0.02 0.02
0.04 0.05 0.06 0.07 0.08 0.06 0.05 0.04 0.05 0.05 0.03 0.02 0.03 0.04 0.05 0.04 0.03 0.03 0.05 0.05 0.04 0.03 0.02 0.02 0.02 0.02 0.04 0.04 0.03 0.02 0.01 0.01 0.02 0.02 0.02 0.01 0.02 0.02 0.03 0.03 0.02 0.03 0.02
0.03 0.04 0.05 0.05 0.05 0.05 0.04 0.03 0.03 0.04 0.03 0.03 0.03 0.04 0.05 0.03 0.03 0.02 0.03 0.04 0.04 0.04 0.03 0.03 0.03 0.03 0.03 0.04 0.03 0.02 0.02 0.02 0.03 0.03 0.02 0.02 0.02 0.02 0.02 0.02 0.03 0.03 0.03
0.02 0.03 0.03 0.03 0.03 0.03 0.04 0.04 0.03 0.04 0.05 0.06 0.08 0.07 0.05 0.03 0.03 0.02 0.02 0.02 0.02 0.03 0.04 0.04 0.05 0.04 0.04 0.04 0.03 0.03 0.02 0.03 0.03 0.04 0.03 0.03 0.03 0.03 0.01 0.01 0.02 0.03 0.04
0.02 0.02 0.02 0.03 0.03 0.03 0.03 0.04 0.05 0.06 0.08 0.09 0.09 0.08 0.07 0.04 0.03 0.03 0.03 0.02 0.01 0.02 0.04 0.06 0.06 0.04 0.04 0.04 0.02 0.01 0.01 0.02 0.03 0.04 0.03 0.03 0.03 0.05 0.02 0.01 0.02 0.02 0.03
0.01 0.01 0.01 0.02 0.04 0.04 0.03 0.03 0.04 0.05 0.08 0.08 0.06 0.05 0.04 0.03 0.03 0.03 0.03 0.03 0.03 0.03 0.02 0.03 0.05 0.05 0.03 0.03 0.03 0.02 0.01 0.02 0.02 0.02 0.01 0.02 0.03 0.05 0.04 0.02 0.02 0.02 0.03
0.01 0.01 0.02 0.02 0.03 0.03 0.03 0.03 0.03 0.03 0.03 0.03 0.03 0.04 0.04 0.03 0.03 0.04 0.05 0.05 0.04 0.03 0.02 0.02 0.04 0.06 0.05 0.04 0.03 0.02 0.03 0.03 0.02 0.01 0.01 0.01 0.02 0.02 0.03 0.02 0.02 0.02 0.02
0.02 0.02 0.03 0.03 0.02 0.02 0.02 0.02 0.03 0.03 0.03 0.03 0.04 0.05 0.05 0.04 0.04 0.05 0.06 0.05 0.05 0.03 0.02 0.02 0.02 0.03 0.04 0.05 0.05 0.04 0.04 0.03 0.02 0.01 0.01 0.01 0.01 0.01 0.02 0.02 0.02 0.02 0.02
0.04 0.05 0.04 0.03 0.03 0.02 0.02 0.03 0.04 0.06 0.07 0.08 0.07 0.06 0.05 0.05 0.04 0.04 0.04 0.04 0.04 0.03 0.02 0.02 0.03 0.03 0.04 0.05 0.06 0.05 0.04 0.03 0.03 0.02 0.02 0.02 0.01 0.01 0.01 0.02 0.02 0.01 0.02
0.07 0.08 0.07 0.05 0.04 0.04 0.04 0.04 0.05 0.07 0.09 0.10 0.10 0.10 0.09 0.09 0.08 0.08 0.07 0.06 0.05 0.04 0.03 0.03 0.03 0.03 0.03 0.05 0.04 0.04 0.04 0.04 0.03 0.03 0.04 0.03 0.02 0.01 0.01 0.01 0.01 0.01 0.02
0.05 0.06 0.06 0.05 0.04 0.04 0.04 0.04 0.03 0.03 0.04 0.05 0.05 0.05 0.06 0.06 0.07 0.08 0.07 0.07 0.06 0.05 0.04 0.05 0.04 0.03 0.03 0.04 0.04 0.03 0.03 0.03 0.03 0.03 0.04 0.04 0.02 0.01 0.01 0.01 0.01 0.02 0.02
0.08 0.05 0.04 0.04 0.04 0.03 0.03 0.03 0.03 0.02 0.03 0.03 0.04 0.03 0.04 0.05 0.05 0.05 0.05 0.05 0.04 0.03 0.03 0.04 0.04 0.03 0.03 0.03 0.02 0.02 0.03 0.03 0.04 0.03 0.03 0.04 0.03 0.02 0.01 0.01 0.01 0.02 0.03
0.09 0.08 0.06 0.04 0.03 0.03 0.03 0.03 0.02 0.01 0.01 0.02 0.03 0.03 0.02 0.02 0.04 0.05 0.05 0.05 0.04 0.03 0.03 0.04 0.04 0.03 0.03 0.02 0.02 0.02 0.02 0.04 0.06 0.05 0.03 0.03 0.03 0.03 0.02 0.01 0.01 0.03 0.04
0.05 0.05 0.05 0.04 0.03 0.03 0.02 0.02 0.02 0.02 0.01 0.01 0.02 0.02 0.02 0.02 0.02 0.03 0.04 0.03 0.03 0.02 0.02 0.02 0.02 0.02 0.02 0.02 0.02 0.02 0.02 0.04 0.06 0.07 0.06 0.04 0.04 0.04 0.03 0.02 0.02 0.03 0.04
0.06 0.07 0.06 0.04 0.03 0.03 0.03 0.02 0.02 0.02 0.02 0.02 0.02 0.02 0.02 0.02 0.01 0.02 0.02 0.02 0.02 0.02 0.02 0.02 0.02 0.02 0.02 0.03 0.03 0.03 0.03 0.04 0.05 0.05 0.05 0.06 0.06 0.05 0.04 0.04 0.03 0.03 0.03
0.08 0.07 0.06 0.05 0.04 0.03 0.03 0.02 0.02 0.02 0.02 0.02 0.02 0.03 0.03 0.03 0.03 0.02 0.03 0.03 0.03 0.04 0.04 0.03 0.03 0.02 0.03 0.04 0.04 0.05 0.05 0.04 0.03 0.04 0.04 0.05 0.05 0.04 0.04 0.03 0.03 0.02 0.03
0.06 0.06 0.05 0.04 0.04 0.04 0.03 0.03 0.03 0.03 0.03 0.04 0.04 0.05 0.06 0.06 0.06 0.05 0.04 0.04 0.04 0.05 0.05 0.04 0.04 0.03 0.04 0.05 0.07 0.08 0.08 0.07 0.06 0.05 0.05 0.04 0.03 0.04 0.04 0.03 0.02 0.03 0.03
0.05 0.04 0.04 0.03 0.03 0.04 0.04 0.04 0.05 0.06 0.06 0.07 0.08 0.09 0.10 0.11 0.11 0.10 0.09 0.07 0.07 0.07 0.08 0.07 0.06 0.05 0.04 0.03 0.03 0.04 0.05 0.06 0.06 0.07 0.06 0.07 0.06 0.05 0.06 0.05 0.03 0.03 0.03
0.04 0.04 0.04 0.04 0.04 0.04 0.04 0.05 0.06 0.07 0.07 0.09 0.11 0.13 0.13 0.13 0.12 0.11 0.11 0.09 0.09 0.09 0.11 0.10 0.07 0.05 0.04 0.04 0.03 0.03 0.02 0.02 0.03 0.03 0.04 0.06 0.07 0.06 0.05 0.06 0.06 0.05 0.03
0.03 0.03 0.03 0.03 0.03 0.03 0.04 0.04 0.05 0.07 0.07 0.10 0.13 0.14 0.14 0.12 0.09 0.09 0.09 0.07 0.06 0.06 0.08 0.09 0.08 0.08 0.07 0.07 0.05 0.03 0.03 0.03 0.02 0.03 0.03 0.03 0.04 0.04 0.04 0.04 0.06 0.06 0.05
0.01 0.02 0.02 0.02 0.03 0.03 0.04 0.04 0.05 0.06 0.07 0.09 0.10 0.12 0.11 0.08 0.06 0.07 0.07 0.06 0.05 0.05 0.05 0.04 0.04 0.05 0.06 0.07 0.07 0.07 0.06 0.05 0.04 0.04 0.04 0.04 0.05 0.05 0.04 0.04 0.05 0.06 0.06
MSLP
1015.52 1015.77 1016.05 1016.32 1016.54 1016.69 1016.79 1016.83 1016.84 1016.85 1016.87 1016.91 1016.97 1017.03 1017.09 1017.14 1017.17 1017.19 1017.20 1017.22 1017.25 1017.30 1017.35 1017.41 1017.46 1017.47 1017.45 1017.39 1017.29 1017.16 1017.02 1016.88 1016.74 1016.60 1016.46 1016.32 1016.17 1015.99 1015.81 1015.62 1015.45 1015.31 1015.23
1015.41 1015.66 1015.94 1016.20 1016.42 1016.58 1016.69 1016.74 1016.76 1016.78 1016.79 1016.82 1016.87 1016.92 1016.97 1017.02 1017.06 1017.10 1017.13 1017.17 1017.23 1017.29 1017.36 1017.43 1017.48 1017.50 1017.49 1017.44 1017.36 1017.27 1017.16 1017.05 1016.94 1016.83 1016.70 1016.56 1016.40 1016.20 1015.99 1015.77 1015.56 1015.39 1015.27
1015.24 1015.50 1015.78 1016.04 1016.26 1016.42 1016.54 1016.61 1016.65 1016.69 1016.72 1016.76 1016.81 1016.87 1016.92 1016.97 1017.01 1017.05 1017.09 1017.15 1017.21 1017.28 1017.35 1017.42 1017.47 1017.50 1017.50 1017.47 1017.42 1017.35 1017.27 1017.19 1017.10 1017.01 1016.90 1016.76 1016.59 1016.39 1016.17 1015.93 1015.69 1015.49 1015.33
1014.99 1015.27 1015.55 1015.81 1016.03 1016.20 1016.33 1016.43 1016.51 1016.58 1016.65 1016.73 1016.80 1016.86 1016.92 1016.97 1017.00 1017.03 1017.06 1017.10 1017.15 1017.21 1017.27 1017.33 1017.38 1017.41 1017.42 1017.40 1017.37 1017.32 1017.26 1017.20 1017.13 1017.06 1016.97 1016.85 1016.69 1016.50 1016.28 1016.05 1015.81 1015.58 1015.39
1014.65 1014.95 1015.24 1015.50 1015.72 1015.90 1016.05 1016.19 1016.31 1016.44 1016.56 1016.68 1016.78 1016.87 1016.93 1016.96 1016.98 1016.98 1016.97 1016.98 1016.99 1017.02 1017.06 1017.10 1017.14 1017.16 1017.17 1017.16 1017.13 1017.10 1017.05 1017.01 1016.96 1016.90 1016.83 1016.74 1016.62 1016.46 1016.28 1016.07 1015.85 1015.63 1015.42
1014.23 1014.56 1014.85 1015.10 1015.32 1015.52 1015.70 1015.87 1016.04 1016.22 1016.40 1016.56 1016.70 1016.81 1016.87 1016.89 1016.87 1016.83 1016.77 1016.72 1016.69 1016.67 1016.68 1016.69 1016.71 1016.72 1016.72 1016.71 1016.69 1016.65 1016.62 1016.58 1016.54 1016.51 1016.46 1016.41 1016.33 1016.23 1016.09 1015.94 1015.76 1015.56 1015.36
1013.74 1014.09 1014.39 1014.64 1014.86 1015.07 1015.27 1015.48 1015.70 1015.93 1016.15 1016.36 1016.52 1016.64 1016.69 1016.68 1016.62 1016.52 1016.41 1016.30 1016.22 1016.15 1016.12 1016.10 1016.10 1016.10 1016.10 1016.08 1016.05 1016.02 1015.98 1015.94 1015.91 1015.89 1015.87 1015.85 1015.82 1015.78 1015.71 1015.62 1015.50 1015.35 1015.17
1013.22 1013.58 1013.89 1014.14 1014.36 1014.57 1014.79 1015.03 1015.29 1015.56 1015.81 1016.04 1016.21 1016.32 1016.35 1016.30 1016.20 1016.05 1015.89 1015.73 1015.59 1015.49 1015.43 1015.40 1015.38 1015.38 1015.37 1015.35 1015.32 1015.27 1015.23 1015.18 1015.15 1015.13 1015.13 1015.13 1015.14 1015.15 1015.15 1015.12 1015.06 1014.97 1014.83
1012.67 1013.05 1013.36 1013.63 1013.86 1014.08 1014.32 1014.58 1014.85 1015.13 1015.40 1015.63 1015.79 1015.87 1015.87 1015.78 1015.63 1015.44 1015.24 1015.05 1014.89 1014.78 1014.70 1014.67 1014.66 1014.66 1014.66 1014.64 1014.60 1014.55 1014.49 1014.43 1014.38 1014.35 1014.34 1014.36 1014.40 1014.44 1014.47 1014.49 1014.48 1014.44 1014.34
1012.11 1012.51 1012.85 1013.13 1013.38 1013.63 1013.88 1014.15 1014.43 1014.71 1014.96 1015.16 1015.29 1015.33 1015.29 1015.16 1014.98 1014.77 1014.55 1014.35 1014.19 1014.09 1014.04 1014.02 1014.03 1014.05 1014.06 1014.05 1014.01 1013.95 1013.87 1013.79 1013.72 1013.66 1013.64 1013.64 1013.67 1013.72 1013.77 1013.82 1013.84 1013.82 1013.76
1011.54 1011.97 1012.34 1012.66 1012.95 1013.23 1013.50 1013.78 1014.05 1014.31 1014.52 1014.68 1014.76 1014.76 1014.67 1014.51 1014.31 1014.09 1013.88 1013.70 1013.58 1013.51 1013.49 1013.52 1013.57 1013.61 1013.64 1013.64 1013.60 1013.53 1013.44 1013.33 1013.23 1013.15 1013.09 1013.06 1013.06 1013.09 1013.13 1013.17 1013.19 1013.19 1013.15
1010.95 1011.43 1011.85 1012.23 1012.57 1012.89 1013.19 1013.47 1013.74 1013.96 1014.13 1014.23 1014.25 1014.20 1014.07 1013.89 1013.68 1013.47 1013.29 1013.15 1013.08 1013.06 1013.10 1013.18 1013.26 1013.34 1013.39 1013.40 1013.36 1013.28 1013.17 1013.05 1012.92 1012.80 1012.71 1012.64 1012.61 1012.60 1012.60 1012.61 1012.62 1012.61 1012.58
1010.33 1010.86 1011.36 1011.81 1012.22 1012.59 1012.93 1013.23 1013.47 1013.66 1013.78 1013.82 1013.78 1013.68 1013.51 1013.32 1013.12 1012.94 1012.80 1012.72 1012.71 1012.75 1012.84 1012.95 1013.07 1013.17 1013.23 1013.24 1013.21 1013.12 1013.01 1012.87 1012.72 1012.58 1012.46 1012.37 1012.30 1012.24 1012.21 1012.18 1012.15 1012.12 1012.08
1009.71 1010.30 1010.87 1011.40 1011.89 1012.32 1012.69 1013.00 1013.24 1013.39 1013.46 1013.45 1013.36 1013.21 1013.02 1012.83 1012.64 1012.50 1012.41 1012.39 1012.42 1012.51 1012.63 1012.77 1012.90 1013.00 1013.06 1013.07 1013.02 1012.94 1012.82 1012.68 1012.54 1012.40 1012.28 1012.17 1012.08 1012.00 1011.92 1011.86 1011.79 1011.73 1011.68
1009.13 1009.78 1010.41 1011.01 1011.56 1012.05 1012.46 1012.78 1013.00 1013.13 1013.15 1013.09 1012.96 1012.78 1012.59 1012.40 1012.24 1012.13 1012.09 1012.11 1012.18 1012.29 1012.42 1012.55 1012.66 1012.74 1012.77 1012.76 1012.70 1012.61 1012.51 1012.39 1012.27 1012.17 1012.07 1011.97 1011.89 1011.80 1011.71 1011.62 1011.53 1011.44 1011.36
1008.65 1009.33 1010.00 1010.66 1011.26 1011.79 1012.22 1012.55 1012.76 1012.85 1012.85 1012.75 1012.59 1012.40 1012.21 1012.03 1011.90 1011.83 1011.81 1011.85 1011.94 1012.04 1012.15 1012.24 1012.30 1012.33 1012.31 1012.26 1012.19 1012.10 1012.01 1011.93 1011.86 1011.81 1011.76 1011.72 1011.67 1011.60 1011.52 1011.43 1011.32 1011.21 1011.11
1008.34 1009.01 1009.71 1010.38 1011.01 1011.55 1011.99 1012.31 1012.51 1012.58 1012.55 1012.43 1012.26 1012.07 1011.89 1011.73 1011.63 1011.58 1011.58 1011.63 1011.70 1011.77 1011.82 1011.85 1011.83 1011.78 1011.70 1011.60 1011.50 1011.41 1011.35 1011.32 1011.31 1011.33 1011.36 1011.39 1011.40 1011.38 1011.33 1011.24 1011.14 1011.01 1010.90
1008.24 1008.88 1009.56 1010.22 1010.84 1011.37 1011.80 1012.10 1012.28 1012.33 1012.29 1012.16 1011.99 1011.81 1011.65 1011.52 1011.44 1011.41 1011.42 1011.45 1011.48 1011.50 1011.48 1011.42 1011.32 1011.19 1011.03 1010.88 1010.75 1010.66 1010.63 1010.64 1010.71 1010.80 1010.91 1011.02 1011.10 1011.13 1011.12 1011.06 1010.96 1010.83 1010.69
1008.37 1008.96 1009.58 1010.21 1010.79 1011.29 1011.69 1011.96 1012.11 1012.15 1012.10 1011.97 1011.82 1011.66 1011.52 1011.42 1011.36 1011.34 1011.35 1011.36 1011.35 1011.31 1011.22 1011.07 1010.88 1010.66 1010.44 1010.24 1010.08 1009.99 1009.97 1010.03 1010.15 1010.32 1010.50 1010.68 1010.81 1010.90 1010.92 1010.88 1010.78 1010.65 1010.50
1008.72 1009.24 1009.79 1010.35 1010.87 1011.32 1011.68 1011.92 1012.05 1012.07 1012.01 1011.90 1011.76 1011.63 1011.52 1011.45 1011.42 1011.41 1011.41 1011.40 1011.36 1011.26 1011.10 1010.88 1010.62 1010.33 1010.05 1009.81 1009.63 1009.53 1009.53 1009.62 1009.78 1009.99 1010.21 1010.43 1010.61 1010.72 1010.76 1010.72 1010.63 1010.48 1010.31
1009.24 1009.67 1010.15 1010.63 1011.09 1011.48 1011.79 1011.99 1012.10 1012.11 1012.05 1011.95 1011.84 1011.73 1011.66 1011.61 1011.60 1011.61 1011.61 1011.59 1011.52 1011.38 1011.18 1010.91 1010.60 1010.27 1009.96 1009.69 1009.49 1009.39 1009.39 1009.48 1009.65 1009.87 1010.11 1010.33 1010.51 1010.62 1010.65 1010.60 1010.48 1010.32 1010.12
1009.86 1010.21 1010.61 1011.03 1011.42 1011.75 1012.01 1012.17 1012.25 1012.25 1012.20 1012.11 1012.01 1011.94 1011.89 1011.87 1011.88 1011.90 1011.92 1011.89 1011.81 1011.67 1011.45 1011.17 1010.84 1010.50 1010.18 1009.90 1009.70 1009.59 1009.58 1009.66 1009.80 1010.00 1010.20 1010.38 1010.52 1010.59 1010.58 1010.49 1010.35 1010.15 1009.93
1010.52 1010.81 1011.14 1011.49 1011.82 1012.09 1012.30 1012.43 1012.48 1012.47 1012.41 1012.33 1012.25 1012.19 1012.16 1012.17 1012.20 1012.23 1012.26 1012.25 1012.18 1012.05 1011.84 1011.58 1011.27 1010.95 1010.64 1010.38 1010.18 1010.07 1010.03 1010.07 1010.17 1010.30 1010.43 1010.54 1010.59 1010.59 1010.51 1010.37 1010.17 1009.94 1009.69
1011.16 1011.40 1011.68 1011.97 1012.24 1012.46 1012.62 1012.71 1012.73 1012.70 1012.62 1012.54 1012.46 1012.41 1012.39 1012.41 1012.46 1012.51 1012.56 1012.57 1012.53 1012.43 1012.26 1012.04 1011.78 1011.51 1011.24 1011.00 1010.81 1010.68 1010.62 1010.61 1010.63 1010.67 1010.70 1010.70 1010.65 1010.54 1010.38 1010.16 1009.91 1009.64 1009.36
1011.76 1011.97 1012.20 1012.44 1012.66 1012.82 1012.93 1012.97 1012.95 1012.88 1012.79 1012.69 1012.61 1012.55 1012.54 1012.56 1012.61 1012.67 1012.74 1012.77 1012.77 1012.71 1012.60 1012.44 1012.24 1012.02 1011.80 1011.60 1011.42 1011.28 1011.18 1011.11 1011.04 1010.98 1010.89 1010.76 1010.59 1010.37 1010.11 1009.81 1009.50 1009.18 1008.89
1012.33 1012.51 1012.70 1012.89 1013.04 1013.14 1013.19 1013.17 1013.10 1013.00 1012.87 1012.75 1012.64 1012.57 1012.54 1012.56 1012.61 1012.68 1012.76 1012.82 1012.85 1012.84 1012.78 1012.69 1012.55 1012.39 1012.21 1012.04 1011.88 1011.72 1011.58 1011.43 1011.28 1011.10 1010.89 1010.64 1010.34 1010.00 1009.64 1009.27 1008.89 1008.54 1008.23
Thickness
5741 5739 5737 5735 5733 5730 5728 5726 5724 5723 5721 5720 5719 5717 5714 5713 5711 5710 5708 5707 5705 5703 5703 5702 5701 5700 5698 5697 5696 5696 5694 5693 5690 5690 5690 5691 5691 5692 5692 5692 5692 5692 5693
5739 5736 5733 5731 5729 5727 5725 5723 5721 5719 5718 5717 5715 5713 5710 5709 5707 5706 5704 5702 5700 5699 5698 5697 5696 5695 5693 5692 5690 5689 5688 5687 5686 5684 5684 5684 5685 5686 5686 5686 5686 5687 5687
5735 5732 5730 5727 5725 5723 5721 5719 5717 5715 5713 5712 5710 5708 5706 5704 5703 5702 5700 5698 5696 5695 5694 5693 5692 5690 5688 5687 5685 5684 5683 5683 5681 5679 5679 5678 5678 5679 5679 5679 5680 5680 5681
5731 5728 5725 5723 5721 5719 5717 5715 5713 5711 5709 5707 5704 5703 5701 5699 5698 5697 5695 5693 5692 5691 5690 5689 5688 5686 5684 5683 5682 5680 5678 5676 5675 5674 5673 5672 5672 5672 5672 5672 5673 5674 5674
5727 5724 5722 5720 5717 5715 5713 5711 5709 5707 5705 5702 5699 5698 5696 5694 5693 5692 5690 5689 5688 5687 5686 5685 5685 5684 5683 5680 5679 5677 5674 5672 5670 5668 5667 5666 5666 5665 5666 5666 5666 5667 5668
5722 5720 5718 5715 5713 5710 5708 5706 5704 5702 5700 5697 5695 5693 5691 5690 5689 5687 5686 5684 5683 5682 5681 5681 5681 5680 5679 5677 5676 5675 5672 5669 5667 5665 5664 5662 5662 5662 5661 5661 5660 5660 5661
5718 5715 5712 5710 5708 5705 5704 5701 5698 5696 5694 5692 5690 5688 5686 5686 5685 5683 5682 5680 5679 5678 5677 5677 5677 5677 5675 5673 5672 5670 5668 5667 5666 5665 5662 5661 5660 5660 5657 5656 5655 5655 5655
5712 5710 5708 5705 5703 5700 5698 5696 5694 5691 5688 5686 5685 5684 5683 5682 5680 5679 5678 5676 5674 5673 5673 5673 5672 5671 5671 5669 5667 5665 5664 5663 5662 5661 5661 5660 5659 5658 5656 5654 5652 5650 5650
5708 5705 5703 5700 5697 5695 5693 5691 5689 5685 5683 5681 5680 5679 5677 5676 5676 5675 5673 5670 5669 5669 5669 5669 5668 5667 5666 5664 5662 5660 5659 5658 5657 5657 5656 5655 5655 5653 5652 5649 5646 5645 5645
5704 5702 5699 5696 5693 5690 5689 5686 5684 5681 5678 5677 5675 5674 5673 5672 5671 5670 5668 5666 5664 5664 5664 5664 5663 5662 5661 5658 5656 5655 5653 5653 5651 5650 5649 5649 5649 5648 5647 5646 5644 5642 5640
5699 5697 5694 5691 5688 5686 5683 5681 5679 5677 5675 5672 5670 5670 5669 5668 5667 5666 5664 5662 5661 5659 5658 5658 5658 5657 5655 5653 5651 5650 5649 5648 5646 5644 5643 5643 5643 5643 5642 5642 5641 5639 5638
5693 5690 5687 5685 5683 5681 5678 5675 5673 5670 5668 5666 5665 5664 5664 5663 5662 5661 5659 5657 5656 5654 5653 5653 5652 5651 5649 5648 5646 5645 5643 5641 5640 5638 5638 5638 5638 5638 5638 5637 5636 5635 5635
5686 5683 5681 5679 5676 5674 5671 5668 5666 5663 5661 5660 5659 5658 5659 5658 5656 5655 5653 5652 5650 5648 5647 5647 5646 5645 5645 5644 5642 5640 5638 5636 5635 5634 5634 5634 5635 5635 5633 5632 5631 5630 5629
5680 5677 5675 5672 5669 5667 5664 5662 5659 5657 5655 5654 5653 5653 5652 5651 5650 5649 5647 5645 5644 5642 5641 5640 5639 5639 5639 5638 5637 5635 5633 5632 5631 5630 5631 5630 5629 5628 5628 5626 5625 5624 5623
5674 5671 5668 5665 5663 5659 5658 5655 5654 5653 5651 5649 5649 5648 5646 5646 5646 5644 5641 5640 5638 5636 5634 5633 5632 5632 5632 5631 5630 5630 5628 5627 5626 5625 5625 5625 5624 5623 5623 5622 5620 5618 5617
5667 5664 5662 5659 5657 5654 5652 5651 5650 5648 5646 5645 5644 5643 5642 5641 5640 5637 5635 5634 5632 5630 5628 5627 5626 5625 5625 5625 5624 5624 5624 5622 5622 5622 5621 5621 5620 5619 5618 5616 5615 5615 5614
5661 5659 5656 5654 5651 5648 5647 5644 5642 5641 5641 5640 5638 5637 5636 5635 5633 5632 5629 5627 5625 5623 5622 5622 5621 5620 5620 5620 5619 5619 5618 5618 5617 5616 5616 5616 5615 5614 5613 5612 5610 5610 5610
5656 5654 5651 5649 5647 5644 5641 5639 5637 5635 5634 5634 5633 5631 5629 5628 5626 5625 5622 5620 5618 5617 5617 5617 5617 5616 5616 5615 5615 5614 5614 5612 5612 5611 5611 5610 5610 5609 5608 5607 5606 5606 5605
5649 5647 5645 5644 5641 5638 5635 5633 5631 5629 5628 5627 5626 5625 5623 5621 5620 5618 5615 5615 5614 5613 5613 5613 5613 5612 5612 5611 5611 5610 5609 5608 5607 5607 5606 5606 5605 5604 5604 5603 5603 5600 5600
5642 5641 5639 5637 5635 5632 5630 5627 5625 5623 5622 5621 5621 5620 5617 5615 5614 5613 5611 5610 5610 5609 5609 5608 5608 5608 5608 5607 5607 5606 5605 5604 5603 5603 5602 5602 5601 5600 5599 5599 5598 5597 5596
5636 5634 5633 5631 5629 5626 5624 5622 5620 5618 5617 5616 5616 5615 5611 5610 5610 5608 5607 5606 5606 5605 5604 5604 5604 5604 5604 5603 5602 5601 5601 5600 5599 5599 5598 5597 5597 5596 5595 5594 5594 5593 5591
5631 5629 5627 5625 5622 5619 5618 5616 5614 5613 5612 5611 5610 5609 5606 5605 5605 5603 5602 5601 5600 5600 5600 5599 5600 5600 5599 5599 5598 5596 5596 5595 5595 5594 5594 5593 5592 5592 5591 5590 5589 5588 5587
5626 5624 5620 5618 5617 5615 5613 5612 5610 5608 5607 5607 5605 5604 5602 5601 5600 5599 5598 5597 5596 5596 5596 5595 5595 5596 5595 5594 5593 5592 5591 5591 5590 5589 5589 5589 5588 5588 5587 5586 5585 5584 5583
5620 5618 5616 5614 5612 5611 5610 5608 5606 5605 5604 5602 5601 5599 5598 5596 5596 5596 5595 5594 5593 5592 5592 5592 5592 5592 5591 5589 5588 5587 5586 5585 5585 5584 5584 5584 5583 5583 5583 5582 5581 5580 5578
5614 5612 5611 5609 5608 5607 5605 5604 5602 5601 5600 5599 5597 5596 5595 5594 5593 5593 5592 5590 5589 5589 5588 5588 5587 5587 5586 5585 5583 5582 5581 5580 5579 5579 5578 5578 5578 5578 5578 5577 5576 5575 5573
5609 5607 5606 5604 5603 5602 5600 5599 5599 5598 5597 5595 5593 5592 5591 5590 5589 5589 5587 5586 5585 5584 5583 5583 5582 5582 5581 5580 5578 5577 5576 5574 5574 5573 5573 5573 5573 5573 5573 5572 5571 5570 5569